Tracking 22438 objects as of 25-Feb-2021
HD Live streaming from Space Station
objects crossing your sky now

FREGAT DEB

Track FREGAT DEB now!
10-day predictions


NORAD ID: 46620
Int'l Code: 2011-037ML
Perigee: 401.5 km
Apogee: 4,485.5 km
Inclination: 50.9 °
Period: 137.3 minutes
Semi major axis: 8814 km
RCS: Unknown
Launch date: July 18, 2011
Source: Commonwealth of Independent States (former USSR) (CIS)
Launch site: TYURATAM MISSILE AND SPACE COMPLEX (TTMTR)

Note: This is SATELLITE DEBRIS
aabbcc
Your satellite tracking list
Your tracking list is empty




NASA's NSSDC Master Catalog

Two Line Element Set (TLE):
1 46620U 11037ML  21025.03364511  .02429433  00000-0  40604+0 0  9993
2 46620  50.9065 313.7891 2316617 356.8086   1.9873 10.49069001 12291
Source of the keplerian elements: AFSPC